Regional Weather Roundup
Issued by NWS Sioux Falls, SD

Home | Current Version | Previous Version | Text Only | Print | Product List | Glossary On
Versions: 1 2 3 4 5 6 7 8 9 10 11 12 13 14 15 16 17 18 19 20 21 22 23 24 25 26 27 28 29 30 31 32 33 34 35 36 37 38 39 40 41 42 43 44 45 46 47 48 49 50
000
ASUS43 KFSD 060602
RWRFSD

WEATHER ROUNDUP FOR SE SOUTH DAKOTA/SW MINNESOTA/NW IOWA
NATIONAL WEATHER SERVICE SIOUX FALLS SD
100 AM CDT MON JUL 06 2015

NOTE: "FAIR" INDICATES FEW OR NO CLOUDS BELOW 12,000 FEET WITH NO
SIGNIFICANT WEATHER AND OR OBSTRUCTIONS TO VISIBILITY.


SDZ038>040-050-052>070-060700-
SOUTHEAST SOUTH DAKOTA

CITY           SKY/WX    TMP DP  RH WIND       PRES   REMARKS
BROOKINGS      CLOUDY    68  64  88 N7        29.85R
CHAMBERLAIN    NOT AVBL
HURON          RAIN      70  67  90 N12       29.84R
6HR MIN TEMP:  70; 6HR MAX TEMP:  86; 6HR PCP:  0.08;

MADISON        LGT RAIN  68  68 100 E10       29.80F
MITCHELL       LGT RAIN  71  69  93 NW20G29   29.84R
6HR MIN TEMP:  71; 6HR MAX TEMP:  87; 6HR PCP:  0.72;

SIOUX FALLS    CLOUDY    74  69  85 NE26G43   29.75R
6HR MIN TEMP:  72; 6HR MAX TEMP:  85; 6HR PCP: TRACE;

WINNER         CLOUDY    68  64  87 N9        29.94R
YANKTON        CLOUDY    72  66  83 NW25G47   29.80R THUNDER
$$

MNZ071-072-080-081-089-090-097-098-060700-
SOUTHWEST MINNESOTA

CITY           SKY/WX    TMP DP  RH WIND       PRES   REMARKS
FAIRMONT       CLOUDY    73  64  73 S14       29.79R
JACKSON        CLOUDY    77  70  78 S13G18    29.79R
MARSHALL       CLOUDY    70  64  83 N3          N/A
6HR MIN TEMP:  70; 6HR MAX TEMP:  86; 6HR PCP:  0.23;

PIPESTONE      TSTM      70  66  88 E7        29.80F
REDWOOD FALLS  CLOUDY    73  69  87 N7        29.79R
WINDOM         CLOUDY    77  70  78 S9        29.78R
WORTHINGTON    CLOUDY    75  66  73 S12G17    29.77F
$$

IAZ001>003-012>014-020>022-031-032-NEZ013-014-SDZ071-060700-
NORTHWEST IOWA

CITY           SKY/WX    TMP DP  RH WIND       PRES   REMARKS
DENISON        CLOUDY    77  73  88 W6G15     29.83R
ESTHERVILLE    CLOUDY    74  69  85 S14       29.78F
SIOUX CITY     CLOUDY    80  71  74 SE13      29.74S
6HR MIN TEMP:  80; 6HR MAX TEMP:  88;

SPENCER        CLOUDY    78  69  73 S15       29.78S
6HR MIN TEMP:  77; 6HR MAX TEMP:  87;

$$

ABBREVIATIONS USED IN REMARKS
   TC - TEMPERATURE IN CELSIUS
  WCI - WIND CHILL INDEX
   HX - HEAT INDEX
  VSB - VISIBILITY




USA.gov is the U.S. government's official web portal to all federal, state and local government web resources and services.